Location: Newark
(44.4156°N, 12.1972°E)
Time: 10:29:06
(UTC+00:00)

STARLINK-1108 - Pass Details

Date: 02 February 2020
Orbit: 349 x 351 km, 53.0° (Epoch: 18 February)

Event Time Altitude Azimuth Distance (km) Brightness Sun altitude
Rises 17:54:17 0° 292° (WNW) 2,166 7.8 -16.9°
Reaches altitude 10° 17:56:41 10° 272° (W) 1,319 6.8 -17.3°
Maximum altitude 17:58:47 18° 226° (SW) 951 5.5 -17.6°
Drops below altitude 10° 18:00:53 10° 180° (S) 1,313 5.6 -18.0°
Enters shadow 18:01:49 - 170° (S) 1,615 6.0 -18.2°
